Location: Klein M�hlingen
(51.9472°N, 11.7453°E)
Time: 12:02:20
(UTC+00:00)

Cosmos 1190 Rocket - Pass Details

Date: 09 April 2020
Orbit: 757 x 779 km, 74.1° (Epoch: 02 June)

Event Time Altitude Azimuth Distance (km) Brightness Sun altitude
Rises 18:38:41 0° 184° (S) 3,248 7.1 -6.3°
Reaches altitude 10° 18:41:08 10° 178° (S) 2,323 6.3 -6.7°
Maximum altitude 18:46:09 47° 106° (ESE) 1,027 4.3 -7.4°
Drops below altitude 10° 18:51:12 10° 34° (NE) 2,327 6.4 -8.1°
Sets 18:53:39 0° 29° (NNE) 3,255 7.2 -8.5°
